Location: Unspecified
(48.2082°N, 0.0000°E)
Time: 00:37:05
(UTC+00:00)

Vanguard 1 - Pass Details

Date: 26 June 2019
Orbit: 655 x 3829 km, 34.2° (Epoch: 17 August)

Event Time Altitude Azimuth Distance (km) Brightness Sun altitude
Rises 04:48:05 0° 262° (W) 7,196 13.9 5.7°
Reaches altitude 10° 04:53:55 10° 256° (WSW) 5,714 13.4 6.6°
Maximum altitude 05:07:33 38° 196° (SSW) 2,653 12.1 8.6°
Drops below altitude 10° 05:15:30 10° 131° (SE) 3,352 13.2 9.8°
Sets 05:17:59 0° 123° (ESE) 4,023 13.7 10.2°
